Location: Kisielany Kuce
(52.2367°N, 22.1883°E)
Time: 09:38:25
(UTC+00:00)

Daily predictions for brighter satellites

Satellite Brightness Start Highest point End
(mag) Time Altitude Azimuth Time Altitude Azimuth Time Altitude Azimuth
STARLINK-1113 3.9 19:24:57 10° WNW 19:29:02 57° SSW 19:33:05 10° SE
Cosmos 1733 4.5 19:27:32 10° N 19:30:51 27° ENE 19:34:08 10° SE
STARLINK-1239 3.7 19:26:49 10° SW 19:30:53 60° SSE 19:34:59 10° ENE
USA 215 3.9 19:24:30 10° E 19:30:57 61° N 19:37:21 10° WNW
NOSS 8 (E) 4.4 19:28:08 10° SSW 19:31:11 46° SE 19:34:09 10° NE
Meteor 1-15 Rocket 4.4 19:26:28 10° NNW 19:32:27 81° ENE 19:38:22 10° SSE
STARLINK-1201 3.7 19:29:23 10° W 19:33:32 82° N 19:37:43 10° E
CENTAUR R/B 3.6 19:26:10 10° NW 19:33:44 61° NNE 19:42:16 10° ESE
Aureole 2 Rocket 2.5 19:30:50 10° S 19:33:45 40° ESE 19:36:34 10° NE
STARLINK-1119 3.9 19:29:57 10° WNW 19:34:01 54° SSW 19:38:03 10° SE
NOSS 2-2 (D) 4.3 19:31:18 10° S 19:34:15 24° ESE 19:37:28 10° ENE
Cosmos 1437 Rocket 2.7 19:31:46 10° S 19:35:32 74° E 19:39:23 10° NNE
STARLINK-1240 3.6 19:31:45 10° WSW 19:35:51 63° SSE 19:39:57 10° ENE
ATLAS 3B R/B 3.8 19:30:32 10° NW 19:36:50 40° NNE 19:43:16 10° E
Lacrosse 5 3.6 19:33:40 10° WNW 19:37:34 23° SW 19:41:28 10° S
STARLINK-1206 3.7 19:34:23 10° W 19:38:33 81° N 19:42:43 10° E
NOSS 3-2 (C) 4.3 19:31:42 10° NW 19:38:51 66° NE 19:47:02 10° ESE
Cosmos 304 Rocket 3.9 19:34:16 10° S 19:38:56 56° ESE 19:43:38 10° NNE
STARLINK-1114 4.0 19:34:55 10° WNW 19:38:57 51° SSW 19:42:58 10° SE
Cosmos 1378 4.1 19:35:41 10° SSE 19:38:59 31° E 19:42:18 10° NNE
STARLINK-1203 3.6 19:36:19 10° WSW 19:40:29 66° SSE 19:44:40 10° ENE
STARLINK-1216 3.6 19:36:42 10° WSW 19:40:48 66° SSE 19:44:55 10° ENE
CZ-2C R/B 3.8 19:35:39 10° N 19:41:03 50° WNW 19:46:26 10° SW
ISS -1.2 19:40:01 10° WSW 19:41:11 11° SW 19:42:20 10° SSW
STARLINK-1205 3.8 19:39:21 10° W 19:43:31 80° N 19:47:41 10° E
STARLINK-1130 (DARKSAT) 4.1 19:39:55 10° WNW 19:43:55 48° SSW 19:47:55 10° SE
STARLINK-1237 3.6 19:41:39 10° WSW 19:45:47 69° SSE 19:49:55 10° ENE
STARLINK-1218 3.8 19:44:22 10° W 19:48:31 80° N 19:52:41 10° E
STARLINK-1084 4.1 19:44:54 10° WNW 19:48:53 46° SSW 19:52:46 10° SE
Cosmos 1674 Rocket 3.6 19:44:39 10° S 19:49:02 87° E 19:53:29 10° NNE
STARLINK-1202 3.6 19:46:38 10° WSW 19:50:45 72° SSE 19:54:54 10° ENE
NOSS 2-2 (E) 3.6 19:47:58 10° SSW 19:51:22 41° SE 19:55:18 10° NE
Cosmos 1378 Rocket 3.5 19:47:34 10° S 19:51:57 74° E 19:56:20 10° NNE
EXPRESS MD2 4.1 19:49:21 10° SW 19:52:32 38° SSE 19:58:23 10° E
SL-27 R/B 3.4 19:49:15 10° NNW 19:52:41 39° ENE 19:55:55 11° SE
STARLINK-1254 3.8 19:49:20 10° W 19:53:30 79° N 19:57:40 10° E
Cosmos 1766 3.5 19:49:39 10° N 19:53:36 58° ENE 19:57:24 11° SSE
STARLINK-1098 4.2 19:49:54 10° WNW 19:53:50 43° SSW 19:57:33 11° SE
Cosmos 2297 3.7 19:50:39 10° SSW 19:56:17 69° ESE 20:01:59 10° NE
Cosmos 1943 Rocket 2.8 19:51:46 10° S 19:56:44 35° ESE 20:01:46 10° NE
Cosmos 1900 4.5 19:52:07 10° NW 19:57:10 78° SW 20:01:59 11° SSE
STARLINK-1231 3.8 19:54:19 10° W 19:58:28 79° N 20:02:38 10° E
STARLINK-1123 4.3 19:54:52 10° W 19:58:47 41° SSW 20:02:19 12° SE
Cosmos 2082 Rocket 3.7 19:54:19 10° NW 19:59:16 31° WSW 20:04:11 10° SSW
IGS 5A 4.2 19:56:28 10° S 20:00:30 50° W 20:04:35 10° NNW
STARLINK-1246 3.5 19:56:35 10° WSW 20:00:43 77° SSE 20:04:52 10° ENE
SeaSat 1 4.4 20:00:50 10° ENE 20:02:44 12° E 20:04:38 10° ESE
Cosmos 1452 Rocket 4.3 19:57:46 10° SW 20:02:58 58° WNW 20:08:14 10° NNE
Cosmos 332 Rocket 4.3 19:58:17 10° SW 20:03:11 67° WNW 20:08:05 10° NNE
BREEZE-M DEB 3.8 20:00:56 10° SSW 20:03:19 26° SE 20:08:16 10° E
STARLINK-1232 3.8 19:59:19 10° W 20:03:28 79° N 20:07:38 10° E
STARLINK-1097 4.4 19:59:54 10° W 20:03:46 39° SSW 20:07:07 13° SE
STARLINK-1224 3.5 20:01:32 10° WSW 20:05:41 80° SSE 20:09:50 10° ENE
Meteor 1-23 Rocket 4.3 20:01:40 10° SSW 20:07:22 89° W 20:13:02 10° NNE
STARLINK-1208 3.8 20:04:17 10° W 20:08:26 79° N 20:12:36 10° E
STARLINK-1099 4.4 20:04:53 10° W 20:08:42 36° SSW 20:11:54 14° SSE
SAR-Lupe-2 4.1 20:05:57 10° N 20:09:31 62° WNW 20:13:04 10° SSW
Cosmos 1461 3.0 20:05:34 10° SW 20:09:46 87° NW 20:14:14 10° NE
STARLINK-1225 3.6 20:06:32 10° WSW 20:10:41 82° SSE 20:14:50 10° ENE
Cosmos 1975 Rocket 3.6 20:07:29 11° SSE 20:11:26 44° E 20:15:38 10° NNE
Cosmos 2369 Rocket 2.9 20:07:36 10° S 20:12:39 34° ESE 20:17:42 10° NE
STARLINK-1271 3.8 20:09:18 10° W 20:13:27 79° N 20:17:37 10° E
STARLINK-1212 2.8 20:12:14 10° WNW 20:15:21 87° SSW 20:18:28 10° ESE
STARLINK-1230 3.6 20:11:30 10° WSW 20:15:39 85° SSE 20:19:48 10° ENE
STARLINK-1105 2.8 20:12:42 10° WNW 20:15:49 87° SSW 20:18:56 10° ESE
NOSS 2-2 (C) 3.3 20:12:24 10° SSW 20:15:54 54° SE 20:19:57 10° NE
STARLINK-1247 2.8 20:13:34 10° WNW 20:16:42 87° SSW 20:19:50 10° ESE
STARLINK-1227 2.8 20:14:04 10° WNW 20:17:12 86° S 20:20:18 10° ESE
STARLINK-1226 2.8 20:14:55 10° WNW 20:18:03 86° SSW 20:21:10 10° ESE
STARLINK-1154 3.7 20:14:17 10° W 20:18:26 79° N 20:22:36 10° E
STARLINK-1215 2.8 20:15:49 10° WNW 20:18:57 85° SSW 20:22:05 10° ESE
SPOT 5 3.3 20:14:17 10° S 20:19:31 71° WSW 20:24:55 10° NNW
ATLAS 2AS CENTAUR R/B 3.9 20:13:27 10° SSE 20:20:04 30° ESE 20:26:40 10° ENE
NOSS 3-2 (A) 4.2 20:13:01 10° NW 20:20:20 71° SW 20:27:48 13° SSE
STARLINK-1243 3.6 20:16:29 10° WSW 20:20:38 87° SSE 20:24:48 10° ENE
STARLINK-1217 2.8 20:17:38 10° WNW 20:20:46 84° SSW 20:23:53 10° ESE
Meteor 1-22 Rocket 4.3 20:15:34 10° NNW 20:21:32 87° W 20:26:47 12° S
STARLINK-1229 2.8 20:18:33 10° WNW 20:21:41 84° SSW 20:24:46 10° ESE
Cosmos 2026 Rocket 4.3 20:15:52 11° SSE 20:21:48 56° E 20:28:00 10° NNE
Cosmos 1553 Rocket 4.5 20:15:44 10° N 20:21:52 49° ENE 20:27:04 14° SE
STARLINK-1270 2.8 20:19:26 10° WNW 20:22:35 83° SSW 20:25:38 10° ESE
STARLINK-1197 3.7 20:19:14 10° W 20:23:24 80° N 20:27:33 10° E
ATLAS CENTAUR R/B 3.5 20:23:28 11° ESE 20:24:02 11° ESE 20:25:22 10° E
STARLINK-1189 2.8 20:21:14 10° WNW 20:24:22 82° SSW 20:27:21 11° ESE
ERS-1 Rocket 3.5 20:19:51 10° S 20:24:46 55° W 20:29:45 10° NNW
STARLINK-1188 2.8 20:22:09 10° WNW 20:25:17 81° SSW 20:28:14 11° ESE
STARLINK-1236 3.6 20:21:27 10° WSW 20:25:37 89° SSE 20:29:46 10° ENE
STARLINK-1187 2.7 20:23:14 10° WNW 20:26:19 77° SSW 20:29:06 12° ESE
STARLINK-1191 2.7 20:24:36 10° WNW 20:27:42 80° SSW 20:30:32 12° ESE
STARLINK-1198 3.7 20:24:13 10° W 20:28:23 80° N 20:32:32 10° E
STARLINK-1221 2.7 20:25:33 10° WNW 20:28:39 79° SSW 20:31:28 12° ESE
Cosmos 1025 Rocket 4.4 20:26:06 14° SE 20:28:43 25° E 20:32:13 10° NNE
STARLINK-1222 2.7 20:26:24 10° WNW 20:29:30 78° SSW 20:32:16 12° ESE
Okean 2 3.4 20:25:56 12° S 20:29:46 72° E 20:33:57 10° NNE
STARLINK-1214 2.7 20:27:17 10° WNW 20:30:24 78° SSW 20:33:08 13° ESE
USA 238 DEB 4.1 20:25:07 10° NW 20:32:11 62° SW 20:38:25 15° SSE
Cosmos 1953 3.8 20:28:48 10° N 20:32:12 26° ENE 20:35:00 13° ESE
USA 238 4.1 20:25:13 10° NW 20:32:17 63° SW 20:38:32 15° SSE
Okean 1 Rocket 4.4 20:29:02 10° NNW 20:33:06 35° W 20:37:07 10° SSW
STARLINK-1199 3.7 20:29:13 10° W 20:33:23 81° N 20:37:33 10° E
Cosmos 968 Rocket 3.6 20:28:13 10° NNW 20:33:24 70° ENE 20:37:31 16° SE
Cosmos 1805 4.1 20:29:44 10° NNW 20:33:32 46° W 20:37:07 11° SSW
Cosmos 1470 3.1 20:30:02 10° N 20:33:49 51° ENE 20:36:30 18° SSE
STARLINK-1228 3.1 20:31:22 10° WNW 20:34:50 67° SSW 20:37:42 14° ESE
Resurs 01 Rocket 4.3 20:33:40 10° WSW 20:35:26 12° W 20:37:12 10° WNW
STARLINK-1269 3.6 20:31:25 10° W 20:35:34 87° NNW 20:39:44 10° E
Cosmos 2278 Rocket 4.3 20:31:37 10° WSW 20:36:34 30° NW 20:41:35 10° NNE
Nadezhda 4 Rocket 4.4 20:30:53 10° SSW 20:36:58 63° WNW 20:43:04 10° N
STARLINK-1235 2.9 20:34:58 10° WNW 20:38:12 65° SSW 20:40:36 16° ESE
STARLINK-1210 3.7 20:34:12 10° W 20:38:21 82° N 20:42:31 10° E
Cosmos 1455 Rocket 3.0 20:34:35 10° N 20:38:57 90° NNW 20:42:18 17° S
STARLINK-1200 3.6 20:36:23 10° W 20:40:32 86° N 20:44:42 10° E
STARLINK-1219 3.7 20:39:10 10° W 20:43:20 83° N 20:47:29 10° E
STARLINK-1192 3.7 20:41:23 10° W 20:45:32 84° N 20:49:42 10° E
Cosmos 1758 3.5 20:42:53 10° N 20:46:56 62° ENE 20:49:40 20° SSE
ATLAS CENTAUR R/B 2.8 20:45:53 10° NW 20:47:24 21° N 20:49:10 10° ENE
STARLINK-1211 3.6 20:44:10 10° W 20:48:20 85° N 20:52:30 10° E
Terra 2.4 20:44:22 13° S 20:48:29 51° W 20:53:09 10° NNW
SL-4 R/B 3.1 20:45:51 10° SSW 20:50:02 30° SE 20:54:15 10° E
STARLINK-1244 3.7 20:46:21 10° W 20:50:30 83° N 20:54:40 10° E
SL-4 R/B 3.1 20:50:27 11° E 20:51:17 13° ENE 20:52:26 10° NNE
Cosmos 1842 3.2 20:48:52 15° S 20:52:07 87° WNW 20:56:02 10° N
Cosmos 1503 Rocket 4.1 20:47:53 10° NNW 20:53:13 75° ENE 20:57:15 18° SSE
STARLINK-1245 3.6 20:49:08 10° W 20:53:19 86° NNE 20:57:28 10° E
ERBS 4.0 20:51:41 10° WNW 20:54:47 35° N 20:57:54 10° ENE
STARLINK-1138 3.7 20:51:21 10° W 20:55:31 82° N 20:59:40 10° E
STARLINK-1234 3.2 20:52:46 10° W 20:55:57 51° SSW 20:57:44 23° SE
STARLINK-1233 3.6 20:54:06 10° W 20:58:16 88° NNE 21:02:26 10° E
STARLINK-1143 3.7 20:56:19 10° W 21:00:28 81° N 21:04:37 10° E
STARLINK-1209 3.3 20:58:44 10° W 21:01:55 46° SSW 21:03:26 25° SE
Cosmos 2263 4.3 20:57:25 14° S 21:02:12 56° ESE 21:07:42 10° NE
STARLINK-1204 3.6 20:59:06 10° W 21:03:16 90° NNE 21:07:25 10° ESE
SJ 16-02 4.1 21:02:33 10° NNE 21:03:52 11° NE 21:05:13 10° ENE
STARLINK-1241 3.7 21:01:20 10° W 21:05:30 80° N 21:09:39 10° E
STARLINK-1238 3.6 21:04:06 10° WNW 21:08:16 88° S 21:12:25 10° ESE
STARLINK-1239 3.7 21:06:18 10° W 21:10:28 79° N 21:14:37 10° E
Cosmos 1536 Rocket 3.8 21:08:36 22° SSE 21:11:13 54° E 21:15:29 10° NNE
Cosmos 1354 Rocket 4.0 21:07:10 10° NNW 21:12:31 89° WSW 21:16:12 21° SSE
Meteor 1-21 4.2 21:07:50 14° SSW 21:12:46 88° WNW 21:18:25 10° NNE
COSMOS 2455 3.6 21:09:44 19° SSE 21:13:12 34° ESE 21:18:32 10° NE
STARLINK-1201 3.5 21:09:04 10° WNW 21:13:14 86° SSW 21:17:24 10° ESE
USA 215 3.3 21:07:12 10° ESE 21:13:47 88° NNE 21:20:23 10° WNW
Cosmos 1674 4.4 21:13:31 16° ESE 21:15:05 20° E 21:17:56 10° NE
Cosmos 1833 4.3 21:09:41 10° NW 21:15:20 71° WSW 21:19:13 21° SSE
STARLINK-1240 3.7 21:11:17 10° W 21:15:26 79° N 21:19:35 10° E
Cosmos 1544 Rocket 4.0 21:11:27 10° NNW 21:15:42 54° W 21:18:39 19° SSW
Cosmos 1302 Rocket 4.4 21:11:28 10° SW 21:16:45 67° WNW 21:22:03 10° NNE
Cosmos 1271 Rocket 2.7 21:14:22 22° S 21:16:50 80° E 21:20:47 10° NNE
Spot 4 3.9 21:14:22 21° SSE 21:17:39 87° ENE 21:22:32 10° NNW
Cosmos 2297 Rocket 4.0 21:13:06 10° NNW 21:17:53 27° NE 21:22:41 10° E
Cosmos 1242 Rocket 2.8 21:15:26 18° SSW 21:18:04 70° WNW 21:21:46 10° N
STARLINK-1206 3.5 21:14:04 10° WNW 21:18:14 84° SSW 21:22:23 10° ESE
STARLINK-1203 3.8 21:16:06 10° W 21:20:19 79° N 21:24:33 10° E
STARLINK-1216 3.7 21:16:15 10° W 21:20:25 79° N 21:24:34 10° E
STARLINK-60 3.3 21:20:10 21° SSW 21:21:51 38° SSE 21:24:52 10° E
Timation 2 Rocket 4.5 21:16:06 10° NNW 21:22:24 56° NE 21:27:58 12° SE
STARLINK-1205 3.5 21:19:02 10° WNW 21:23:11 82° SSW 21:27:21 10° ESE
NOSS 2-2 (D) 4.3 21:20:53 10° WSW 21:24:28 48° NW 21:28:46 10° NE
CENTAUR R/B 3.4 21:16:58 10° NW 21:24:43 57° SW 21:31:08 19° SSE
STARLINK-1237 3.7 21:21:14 10° W 21:25:24 79° N 21:29:33 10° E
Cosmos 1707 2.7 21:24:35 24° S 21:26:54 84° E 21:30:48 10° NNE
Lacrosse 4 Rocket 4.2 21:24:09 10° NNW 21:26:58 16° NNE 21:29:45 10° ENE
Cosmos 1174 4.4 21:26:35 26° SE 21:27:15 28° ESE 21:30:31 10° ENE
SL-27 R/B 4.4 21:24:50 10° NW 21:27:33 21° W 21:29:28 14° SW
Helios 1A 4.2 21:24:58 16° ESE 21:27:50 34° ENE 21:31:39 10° N
ATLAS 3B R/B 2.7 21:21:24 10° NW 21:28:11 85° SW 21:33:56 16° SE
STARLINK-1218 3.5 21:24:02 10° WNW 21:28:11 79° SSW 21:32:20 10° ESE
STARLINK-1202 3.7 21:26:14 10° W 21:30:23 79° N 21:34:33 10° E
Cosmos 1726 2.0 21:27:13 10° N 21:30:57 86° E 21:32:50 28° SSE
Meteor 1-16 Rocket 4.2 21:26:42 10° NNW 21:32:17 80° ENE 21:35:51 22° SSE
ALOS 2 2.8 21:30:24 23° SSE 21:33:05 65° ENE 21:37:27 10° N
STARLINK-1254 3.5 21:29:00 10° WNW 21:33:09 76° SSW 21:37:06 11° ESE
Cosmos 1867 3.8 21:29:28 10° NW 21:34:48 55° SW 21:38:07 23° SSE
COSMOS 2487 2.3 21:32:02 10° NNW 21:35:31 79° WSW 21:37:03 31° SSE
NOSS 5 (C) 4.3 21:34:17 10° NW 21:37:22 81° SW 21:39:14 26° SE
STARLINK-1231 3.5 21:33:58 10° WNW 21:38:07 73° SSW 21:41:52 12° ESE
Cosmos 1992 Rocket 3.9 21:36:08 17° SSW 21:40:13 86° ESE 21:45:28 10° NNE
Cosmos 1943 Rocket 3.0 21:34:55 10° SW 21:40:19 51° NW 21:45:50 10° NNE
STARLINK-1246 3.7 21:36:13 10° W 21:40:23 79° N 21:44:33 10° E
SeaSat 1 2.5 21:36:11 10° NE 21:41:07 66° ESE 21:44:34 20° SSW
NOSS 3-4 (A) 3.4 21:36:32 13° SSW 21:41:51 63° SE 21:48:13 10° NE
NOSS 3-4 (C) 3.5 21:36:40 13° SSW 21:41:58 63° SE 21:48:19 10° NE
Cosmos 1606 Rocket 3.9 21:37:44 10° N 21:41:59 54° ENE 21:44:29 23° SE
EO 1 Del DPAF 3.3 21:38:20 10° N 21:42:08 72° WNW 21:44:29 22° SSW
STARLINK-1232 3.5 21:38:58 10° WNW 21:43:06 71° SSW 21:46:40 14° ESE
STARLINK-1224 3.7 21:41:11 10° W 21:45:21 80° N 21:49:31 10° E
Cosmos 2315 Rocket 4.1 21:41:39 10° N 21:47:53 75° ENE 21:52:08 22° SSE
STARLINK-1208 3.5 21:43:56 10° WNW 21:48:03 68° SSW 21:51:25 15° ESE
STARLINK-1225 3.7 21:46:11 10° W 21:50:21 81° N 21:54:31 10° E
Meteor 2-10 4.3 21:45:41 10° NNW 21:50:37 55° W 21:53:43 22° SSW
STARLINK-1212 4.0 21:48:13 10° W 21:50:47 27° SW 21:50:47 27° SW
STARLINK-1105 4.0 21:48:42 10° W 21:51:13 27° SW 21:51:13 27° SW
STARLINK-29 3.5 21:51:40 36° SSE 21:51:45 36° SSE 21:54:44 10° E
STARLINK-1247 4.0 21:49:34 10° W 21:52:06 27° SW 21:52:06 27° SW
STARLINK-1227 4.0 21:50:04 10° W 21:52:32 26° SW 21:52:32 26° SW
STARLINK-1271 3.6 21:48:56 10° WNW 21:53:03 65° SSW 21:56:14 16° ESE
STARLINK-1226 4.1 21:50:55 10° W 21:53:24 26° SW 21:53:24 26° SW
BREEZE-M DEB (TANK) 2.8 21:44:37 10° WSW 21:53:49 63° S 21:56:49 10° E
S3M 4.4 21:47:48 10° NNW 21:53:49 57° W 21:58:10 19° SSW
BREEZE-M DEB (TANK) 3.2 21:50:48 10° W 21:54:11 45° SSW 21:58:33 10° ESE
STARLINK-1215 4.1 21:51:50 10° W 21:54:16 26° SW 21:54:16 26° SW
Cosmos 2227 Rocket 3.5 21:49:49 10° NNW 21:55:07 37° NE 22:00:22 10° ESE
RESURS DK-1 3.4 21:53:56 25° SE 21:55:15 30° ESE 21:58:53 10° NE
STARLINK-1230 3.7 21:51:10 10° W 21:55:20 82° N 21:59:30 10° E
STARLINK-1217 4.1 21:53:40 10° W 21:56:01 25° SW 21:56:01 25° SW
Cosmos 2369 Rocket 2.9 21:50:58 10° SW 21:56:30 53° NW 22:02:02 10° NNE
STARLINK-1229 4.2 21:54:34 10° W 21:56:53 25° SW 21:56:53 25° SW
STARLINK-1154 3.6 21:53:55 10° WNW 21:58:01 62° SSW 22:01:00 18° SE
STARLINK-1270 4.2 21:55:29 10° W 21:57:45 24° SW 21:57:45 24° SW
STARLINK-1189 4.3 21:57:17 10° W 21:59:29 24° SW 21:59:29 24° SW
STARLINK-1243 3.6 21:56:09 10° W 22:00:20 83° N 22:04:30 10° E
Cosmos 1340 Rocket 3.4 21:56:33 10° NNW 22:00:29 49° W 22:02:31 25° SSW
STARLINK-1188 4.3 21:58:12 10° W 22:00:22 23° SW 22:00:22 23° SW
ATLAS CENTAUR R/B 1.3 21:59:35 22° SSW 22:02:17 68° SE 22:06:21 10° NE
Aureole 3 2.9 21:59:08 10° NNW 22:02:24 59° W 22:03:24 36° SSW
Thor Agena Rocket 4.1 21:57:33 10° N 22:02:45 57° WNW 22:07:11 14° SW
Cosmos 1626 3.6 22:01:28 19° SE 22:02:57 25° E 22:06:03 10° NNE
STARLINK-1197 3.6 21:58:53 10° WNW 22:02:58 59° SSW 22:05:46 19° SE
STARLINK-1191 4.4 22:00:41 10° W 22:02:39 22° SW 22:02:39 22° SW
STARLINK-1221 4.4 22:01:38 10° W 22:03:35 21° SW 22:03:35 21° SW
STARLINK-1222 4.5 22:02:30 10° W 22:04:23 21° SW 22:04:23 21° SW
STARLINK-1236 3.6 22:01:07 10° W 22:05:18 84° N 22:09:28 10° E
Cosmos 1908 3.1 22:01:47 10° NNW 22:05:37 83° W 22:07:21 31° S
Nimbus 7 Rocket 4.5 21:59:40 10° NNE 22:05:48 85° ESE 22:10:04 21° SSW
STARLINK-1214 4.5 22:03:24 10° W 22:05:15 21° SW 22:05:15 21° SW
Cosmos 1025 Rocket 4.0 22:02:58 16° SW 22:06:07 41° WNW 22:10:14 10° N
STARLINK-1198 3.7 22:03:51 10° WNW 22:07:56 56° SSW 22:10:32 21° SE
Cosmos 1953 3.4 22:05:01 10° NNW 22:08:41 35° W 22:10:41 21° SW
BREEZE M DEB (TANK) 3.6 22:07:35 10° W 22:14:00 - ESE 22:08:33 19° WSW
Cosmos 1656 Rocket 3.9 22:04:50 12° SW 22:10:00 72° WNW 22:15:35 10° NNE
ATLAS 2AS CENTAUR R/B 3.1 22:02:19 10° SW 22:10:21 89° SE 22:18:17 10° NE
STARLINK-1199 3.7 22:08:52 10° WNW 22:12:55 53° SSW 22:15:20 22° SE
Landsat 4 4.3 22:11:01 10° NNE 22:14:35 43° E 22:16:01 29° SSE
Cosmos 2292 Rocket 3.3 22:13:24 27° SSW 22:15:08 58° WNW 22:18:14 10° N
STARLINK-1269 3.6 22:11:06 10° W 22:15:17 87° NNE 22:19:26 10° E
STARLINK-1210 3.8 22:13:50 10° WNW 22:17:52 50° SSW 22:20:06 24° SE
FALCON 9 R/B 4.3 22:19:35 15° SE 22:19:35 15° SE 22:24:01 10° ESE
KORONAS-FOTON 3.7 22:17:21 31° S 22:19:07 88° E 22:23:00 10° N
SL-4 R/B 2.5 22:20:18 19° W 22:20:18 19° W 22:21:52 10° NW
STARLINK-1200 3.6 22:16:04 10° W 22:20:14 89° NNE 22:24:24 10° ESE
Cosmos 1777 Rocket 4.1 22:15:04 10° NNW 22:20:16 66° WSW 22:23:19 25° S
EO 1 Delta rocket 4.4 22:15:54 10° NNE 22:21:44 59° E 22:24:37 24° SSE
STARLINK-1219 3.8 22:18:49 10° WNW 22:22:48 48° SSW 22:24:52 25° SSE
ATLAS 5 CENTAUR R/B 0.9 22:21:46 14° SW 22:24:23 82° NW 22:26:27 10° NE
Cosmos 1356 Rocket 4.4 22:20:36 10° N 22:24:35 41° ENE 22:27:23 18° SE
STARLINK-1192 3.5 22:21:04 10° WNW 22:25:14 89° S 22:29:24 10° ESE
Cosmos 2228 3.2 22:22:20 10° NNW 22:26:32 59° W 22:28:36 28° SSW
Cosmos 1892 Rocket 3.7 22:25:06 28° S 22:27:19 65° E 22:31:40 10° NNE
Cosmos 1726 Rocket 3.6 22:23:01 10° NNW 22:27:19 71° W 22:29:30 28° S
STARLINK-52 3.0 22:26:27 35° SW 22:27:29 53° SSE 22:30:39 10° E
STARLINK-1211 3.9 22:23:49 10° WNW 22:27:48 45° SSW 22:29:40 26° SSE
SL-4 R/B 2.3 22:24:32 10° WSW 22:29:22 70° SSE 22:34:10 10° E
STARLINK-1244 3.5 22:26:02 10° WNW 22:30:12 87° SSW 22:34:22 10° ESE
STARLINK-1320 4.2 22:31:42 24° ESE 22:31:42 24° ESE 22:33:42 10° E
STARLINK-1322 4.2 22:32:00 24° ESE 22:32:00 24° ESE 22:34:01 10° E
ERBS 3.4 22:28:20 10° WNW 22:31:33 44° NNE 22:34:47 10° E
STARLINK-1324 4.2 22:32:21 25° SE 22:32:21 25° SE 22:34:23 10° E
Cosmos 1300 2.9 22:27:51 10° N 22:31:41 66° ENE 22:33:33 28° SSE
STARLINK-1294 4.2 22:32:38 25° SE 22:32:38 25° SE 22:34:42 10° E
STARLINK-1261 4.2 22:32:58 25° SE 22:32:58 25° SE 22:35:01 10° E
STARLINK-1325 4.2 22:33:18 25° SE 22:33:18 25° SE 22:35:23 10° E
STARLINK-1245 4.0 22:28:48 10° WNW 22:32:44 43° SSW 22:34:26 28° SSE
STARLINK-1338 4.3 22:32:46 29° SSE 22:32:56 29° SE 22:36:15 10° E
STARLINK-1333 4.2 22:33:40 25° SE 22:33:40 25° SE 22:35:45 10° E
STARLINK-1334 4.2 22:33:59 25° SE 22:33:59 25° SE 22:36:04 10° E
STARLINK-1326 4.1 22:34:18 26° SE 22:34:18 26° SE 22:36:25 10° E
Cosmos 921 Rocket 3.4 22:31:52 28° SSE 22:33:50 50° ESE 22:38:04 10° NNE
STARLINK-1323 4.1 22:34:36 26° SE 22:34:36 26° SE 22:36:44 10° E
YAOGAN 11 4.1 22:31:51 28° S 22:34:07 74° WSW 22:38:27 10° NNW
STARLINK-1349 4.1 22:34:57 26° SE 22:34:57 26° SE 22:37:06 10° E
STARLINK-1336 4.1 22:35:16 26° SE 22:35:16 26° SE 22:37:26 10° E
STARLINK-1331 4.1 22:35:36 26° SE 22:35:36 26° SE 22:37:46 10° E
STARLINK-1138 3.5 22:31:01 10° WNW 22:35:11 85° SSW 22:39:21 10° ESE
STARLINK-1344 4.1 22:35:54 26° SE 22:35:54 26° SE 22:38:05 10° E
STARLINK-1343 4.1 22:36:13 27° SE 22:36:13 27° SE 22:38:26 10° E
STARLINK-1346 4.0 22:36:30 27° SE 22:36:30 27° SE 22:38:49 10° E
Meteor 1-24 Rocket 3.8 22:33:05 24° S 22:36:16 64° E 22:41:44 10° NNE
STARLINK-1328 4.0 22:36:54 27° SE 22:36:54 27° SE 22:39:08 10° E
STARLINK-1354 4.0 22:37:13 27° SE 22:37:13 27° SE 22:39:28 10° E
STARLINK-1347 4.0 22:37:32 27° SE 22:37:32 27° SE 22:39:48 10° E
STARLINK-1357 4.0 22:37:53 27° SE 22:37:53 27° SE 22:40:09 10° E
STARLINK-1233 4.0 22:33:46 10° W 22:37:40 40° SSW 22:39:12 29° SSE
STARLINK-1335 4.0 22:38:12 28° SE 22:38:12 28° SE 22:40:30 10° E
STARLINK-1327 4.0 22:38:31 28° SE 22:38:31 28° SE 22:40:49 10° E
STARLINK-1340 4.0 22:38:51 28° SE 22:38:51 28° SE 22:41:11 10° E
CZ-4C R/B 3.8 22:36:20 13° SE 22:38:28 17° ESE 22:41:58 10° ENE
STARLINK-1356 4.0 22:39:10 28° SE 22:39:10 28° SE 22:41:30 10° E
STARLINK-1345 3.9 22:39:28 28° SE 22:39:28 28° SE 22:41:49 10° E
STARLINK-1355 3.9 22:39:47 29° SE 22:39:47 29° SE 22:42:10 10° E
STARLINK-1371 4.1 22:39:09 30° SSE 22:39:32 31° SSE 22:42:53 10° E
STARLINK-1321 3.9 22:40:09 29° SE 22:40:09 29° SE 22:42:32 10° E
STARLINK-1358 3.9 22:40:29 29° SE 22:40:29 29° SE 22:42:53 10° E
STARLINK-1143 3.5 22:35:58 10° WNW 22:40:08 82° SSW 22:44:18 10° ESE
STARLINK-1332 3.9 22:40:48 29° SE 22:40:48 29° SE 22:43:12 10° E
STARLINK-1348 3.9 22:41:05 29° SE 22:41:05 29° SE 22:43:30 10° E
Cosmos 1437 3.4 22:40:11 31° SE 22:40:59 37° E 22:43:49 10° NNE
STARLINK-1330 3.9 22:41:27 30° SE 22:41:27 30° SE 22:43:53 10° E
STARLINK-1363 3.9 22:41:47 30° SE 22:41:47 30° SE 22:44:14 10° E
Resurs 1-4 Rocket 4.4 22:39:10 10° NE 22:41:44 13° E 22:44:18 10° ESE
STARLINK-1337 3.8 22:42:06 30° SE 22:42:06 30° SE 22:44:34 10° E
STARLINK-1342 3.8 22:42:25 30° SE 22:42:25 30° SE 22:44:54 10° E
STARLINK-1364 3.8 22:42:45 30° SE 22:42:45 30° SE 22:45:15 10° E
STARLINK-1204 4.1 22:38:46 10° W 22:42:38 38° SSW 22:43:59 29° S
STARLINK-1376 3.8 22:43:04 30° SE 22:43:04 30° SE 22:45:35 10° E
STARLINK-1341 4.1 22:42:21 31° SSE 22:42:50 32° SSE 22:46:14 10° E
STARLINK-1360 3.8 22:43:23 31° SE 22:43:23 31° SE 22:45:56 10° E
STARLINK-1361 3.8 22:43:43 31° SE 22:43:43 31° SE 22:46:16 10° E
SJ 16-02 2.1 22:39:14 10° NNW 22:43:35 50° ENE 22:47:11 14° SE
Cosmos 220 Rocket 4.4 22:41:33 27° S 22:43:39 52° ESE 22:47:59 10° NNE
STARLINK-1367 3.8 22:44:00 31° SE 22:44:00 31° SE 22:46:37 10° E
STARLINK-1366 3.7 22:44:23 31° SE 22:44:23 31° SE 22:46:57 10° E
STARLINK-1241 3.5 22:41:00 10° WNW 22:45:09 80° SSW 22:49:19 10° ESE
STARLINK-1339 4.0 22:45:37 32° SSE 22:45:59 32° SSE 22:49:15 10° E
STARLINK-1374 4.1 22:45:33 32° S 22:46:09 34° SSE 22:49:36 10° E
STARLINK-1238 4.2 22:43:48 10° W 22:47:37 36° SSW 22:48:47 29° S
Helios 1B rocket 2.9 22:44:06 10° NNE 22:48:08 48° E 22:50:09 26° SSE
STARLINK-1239 3.5 22:45:59 10° WNW 22:50:07 77° SSW 22:54:16 10° ESE
Cosmos 1674 3.6 22:48:20 21° SW 22:50:22 39° WNW 22:53:59 10° N
STARLINK-1201 4.3 22:48:47 10° W 22:52:33 34° SW 22:53:33 29° S
STARLINK-1377 4.0 22:52:00 32° S 22:52:51 37° SSE 22:56:22 10° E
STARLINK-1240 3.5 22:50:56 10° WNW 22:55:05 75° SSW 22:59:13 10° ESE
Cosmos 1244 Rocket 4.5 22:51:03 22° SSW 22:55:12 85° W 23:01:25 10° N
CZ-2D R/B 4.2 22:52:20 10° NE 22:55:37 17° E 22:58:52 10° SE
STARLINK-1353 3.9 22:55:17 32° S 22:56:15 38° SSE 22:59:46 10° E
USA 215 3.7 22:52:57 19° SSE 22:57:14 41° SW 23:03:23 10° WNW
STARLINK-1206 4.4 22:53:49 10° W 22:57:31 32° SW 22:58:21 29° S
STARLINK-60 2.9 22:54:39 10° W 22:57:50 82° N 23:01:03 10° E
Cosmos 2219 3.2 22:52:37 10° NNW 22:58:17 74° WSW 23:02:17 20° SSE
COSMOS 2455 3.3 22:52:52 10° SW 22:58:51 62° NW 23:04:52 10° NE
STARLINK-1375 3.8 22:58:33 32° S 22:59:38 40° SSE 23:03:12 10° E
Cosmos 1745 Rocket 4.3 22:55:32 20° SSE 22:59:43 59° E 23:05:44 10° NNE
STARLINK-1216 3.5 22:55:54 10° WNW 23:00:03 72° SSW 23:04:11 10° ESE
STARLINK-1203 3.5 22:55:58 10° WNW 23:00:11 72° SSW 23:04:23 10° ESE
GEOS 3 Rocket 4.1 22:55:52 10° ESE 23:01:01 62° NE 23:06:17 10° NW
STARLINK-1205 4.4 22:58:48 10° W 23:02:27 30° SW 23:03:07 28° SSW
Cosmos 2297 Rocket 2.1 22:56:55 10° NNW 23:02:36 81° WSW 23:07:00 17° SSE
STARLINK-1352 3.7 23:01:56 33° S 23:02:54 40° SSE 23:06:20 10° E
STARLINK-1350 3.8 23:01:49 31° SSW 23:03:02 42° SSE 23:06:37 10° E
Helios 1A 4.1 23:01:35 22° SW 23:03:25 30° W 23:07:09 10° NNW
STARLINK-1237 3.5 23:00:53 10° WNW 23:05:01 69° SSW 23:09:09 10° ESE
Meteor 2-16 Rocket 4.5 23:00:55 22° S 23:05:01 79° E 23:11:10 10° NNE
PSLV R/B 3.7 23:00:53 10° NNE 23:05:26 72° ESE 23:07:53 26° S
Cosmos 2263 Rocket 4.4 23:01:33 10° NNW 23:06:13 25° NE 23:10:49 10° E
Lacrosse 4 Rocket 2.1 23:02:19 10° NNW 23:06:37 54° NE 23:10:48 10° SE
Cosmos 2058 Rocket 3.8 23:05:31 10° NNW 23:09:43 42° W 23:11:58 24° SSW
STARLINK-1368 3.7 23:08:27 29° SSW 23:09:55 46° SSE 23:13:34 10° E
STARLINK-1202 3.5 23:05:52 10° WNW 23:09:59 66° SSW 23:14:07 10° ESE
Cosmos 1455 3.3 23:06:36 10° N 23:10:09 38° ENE 23:12:54 15° SE
Meteor 2-10 Rocket 4.0 23:05:10 10° N 23:10:22 57° ENE 23:14:39 14° SSE
Cosmos 1937 Rocket 4.0 23:06:58 10° NNW 23:12:11 61° ENE 23:17:25 10° SE
Meteor 1-29 3.3 23:09:03 10° NNE 23:12:22 52° ESE 23:13:48 29° SSE
Cosmos 2082 4.0 23:06:49 10° NNW 23:12:30 69° NE 23:18:07 10° SE
Cosmos 1898 Rocket 3.6 23:07:36 10° NNW 23:12:59 80° ENE 23:17:36 14° SSE
STARLINK-1369 3.6 23:11:47 28° SSW 23:13:23 48° SSE 23:17:03 10° ENE
Cosmos 1626 Rocket 3.6 23:11:50 25° S 23:14:15 70° E 23:18:37 10° NNE
STARLINK-1372 3.6 23:15:07 27° SW 23:16:52 50° SSE 23:20:33 10° ENE
ATLAS 3B R/B 3.9 23:12:52 10° WNW 23:18:06 24° WSW 23:21:10 18° SSW
Meteor 2-5 Rocket 4.2 23:14:12 18° SW 23:18:09 51° WNW 23:23:40 10° N
Starlink 7 placeholder 2.0 23:17:57 52° NW 23:18:14 64° N 23:20:12 10° E
SeaSat 1 4.1 23:14:05 10° NNE 23:18:21 30° NW 23:22:36 10° WSW
STARLINK-1246 3.6 23:15:51 10° WNW 23:19:57 60° SSW 23:24:02 10° SE
STARLINK-1378 3.5 23:18:28 26° SW 23:20:20 52° SSE 23:24:03 10° ENE
SL-14 R/B 3.8 23:19:11 24° SW 23:21:13 49° WNW 23:24:58 10° N
IRAS Rocket 4.2 23:18:19 17° SSE 23:22:47 89° ENE 23:28:22 10° NNW
FALCON 9 DEB 3.0 23:20:07 15° WSW 23:22:53 78° SSE 23:26:21 10° ENE
STARLINK-1379 3.5 23:21:51 24° SW 23:23:50 54° SSE 23:27:34 10° ENE
STARLINK-1224 3.6 23:20:50 10° WNW 23:24:54 57° SSW 23:28:58 10° SE
STARLINK-1329 3.5 23:23:14 24° SW 23:25:18 55° SSE 23:29:02 10° ENE
SL-16 R/B 3.1 23:20:14 10° SE 23:26:14 56° ENE 23:32:16 10° N
STARLINK-29 2.9 23:24:31 10° W 23:27:44 84° N 23:30:56 10° E
CZ-4C R/B 4.4 23:24:34 11° SE 23:28:37 49° ENE 23:32:55 10° N
Cosmos-2242 3.8 23:24:39 10° N 23:28:47 46° ENE 23:32:30 12° SSE
STARLINK-1362 3.5 23:26:40 23° SW 23:28:52 57° SSE 23:32:37 10° ENE
ATLAS CENTAUR R/B 1.9 23:27:03 10° WNW 23:29:22 37° SSW 23:33:44 10° SE
STARLINK-1225 3.7 23:25:50 10° WNW 23:29:53 54° SSW 23:33:56 10° SE
Cosmos 1656 3.9 23:27:52 21° S 23:31:36 64° ESE 23:37:08 10° NE
STARLINK-1373 3.4 23:30:05 21° SW 23:32:25 59° SSE 23:36:13 10° ENE
NOSS 3-4 (A) 4.5 23:27:12 10° W 23:33:03 46° NNW 23:39:28 10° NE
Cosmos 2084 Rocket 4.2 23:28:43 10° NW 23:33:07 57° NE 23:37:32 10° ESE
NOSS 3-4 (C) 4.5 23:27:16 10° W 23:33:09 46° NNW 23:39:34 10° NE
RESURS DK-1 3.4 23:29:48 13° WSW 23:33:11 40° NW 23:37:07 10° NNE
STARLINK-1365 3.4 23:31:12 20° SW 23:33:40 61° SSE 23:37:28 10° ENE
Cosmos 1386 Rocket 4.5 23:29:51 20° S 23:34:13 88° WNW 23:40:30 10° N
STARLINK-1230 3.7 23:30:48 10° WNW 23:34:50 51° SSW 23:38:52 10° SE
STARLINK-1390 3.4 23:33:35 20° SW 23:36:03 61° SSE 23:39:50 10° ENE
Cosmos 1812 Rocket 3.6 23:31:37 10° NNW 23:36:05 72° W 23:38:55 22° S
Cosmos 1697 Rocket 3.5 23:32:47 18° S 23:36:34 42° ESE 23:41:53 10° NE
SL-19 R/B 4.4 23:31:37 10° NNE 23:37:07 69° ESE 23:41:19 19° S
Cosmos 2084 3.9 23:33:36 13° WSW 23:37:29 64° NW 23:41:57 10° NE
Cosmos 1626 3.4 23:36:00 18° WSW 23:38:06 30° WNW 23:41:28 10° N
BREEZE-M R/B 3.3 23:33:11 10° WSW 23:38:53 45° SSE 23:42:02 10° E
DELTA 2 DEB (DPAF) 4.2 23:35:38 17° SSE 23:39:04 85° ENE 23:43:35 10° NNW
Cosmos 990 Rocket 4.0 23:33:57 10° NNW 23:39:11 65° WSW 23:43:10 17° S
Cosmos 2227 Rocket 2.4 23:33:53 10° NW 23:39:24 53° WSW 23:43:29 18° S
STARLINK-1243 3.8 23:35:48 10° WNW 23:39:49 49° SSW 23:43:49 10° SE
CZ-4 R/B 4.3 23:35:55 10° N 23:40:36 54° WNW 23:43:50 19° SW
ATLAS CENTAUR R/B 3.2 23:37:50 10° W 23:41:30 28° NNW 23:44:59 10° NNE
STARLINK-1236 3.8 23:40:47 10° WNW 23:44:46 46° SSW 23:48:44 10° SE
USA 81 4.1 23:42:28 18° S 23:46:22 76° E 23:51:41 10° N
Alouette 2 Rocket 3.8 23:41:29 10° NNW 23:47:27 89° WSW 23:50:43 17° SSE
Cosmos 1825 Rocket 4.2 23:44:53 17° SSE 23:47:59 49° E 23:52:12 10° NNE
Cosmos 1709 Rocket 4.1 23:44:10 17° S 23:48:56 75° E 23:55:07 10° NNE
Cosmos 1602 Rocket 3.6 23:47:23 22° SSW 23:50:06 69° WNW 23:54:26 10° N
SL-08 ROCKET BODY 4.5 23:46:46 19° SSW 23:51:00 66° WNW 23:56:51 10° N
Cosmos 2285 Rocket 4.0 23:46:40 10° NNW 23:53:05 84° WSW 23:59:25 10° SSE
STARLINK-1269 4.0 23:50:46 10° W 23:54:41 41° SSW 23:58:35 10° SE
STARLINK 1040 4.5 23:55:45 15° SE 23:55:45 15° SE 23:57:15 10° ESE
